Location: Endfield
(51.6667°N, 0.0667°W)
Time: 04:46:18
(UTC+00:00)

CZ-2C R/B - Pass Details

Date: 19 May 2024
Orbit: 632 x 692 km, 98.1° (Epoch: 25 April)

Event Time Altitude Azimuth Distance (km) Brightness Sun altitude
Rises 22:08:01 0° 19° (NNE) 3,018 7.8 -14.5°
Reaches altitude 10° 22:10:23 10° 26° (NNE) 2,089 6.8 -14.6°
Maximum altitude 22:14:43 43° 98° (E) 926 4.2 -14.9°
Enters shadow 22:16:49 26° 153° (SSE) 1,290 4.6 -15.0°
